Simultaneous Nadir Overpasses (SNOs) Predictions

Prediction of SNOs between GOES-16 and AQUA Satellite Orbit:

Table of predicted SNOs for the next 14.0 days since TLE Epoch: 1/26/2017
Index Date Time (GOES-16) GOES-16 Lat,Lon AQUA Lat,Lon Distance(km) Time Diff (sec)
1 01/28/2017 07:25:03 0.03, -89.47 -0.35, -87.79 192.56 80
2 01/28/2017 19:46:26 -0.04, -89.49 -0.78, -92.97 395.58 80
3 01/30/2017 19:34:16 -0.04, -89.51 -0.13, -90.02 57.80 80
4 02/01/2017 19:24:45 -0.04, -89.53 0.46, -87.06 280.29 80
5 02/02/2017 07:46:01 0.04, -89.52 0.62, -92.22 307.02 80
6 02/04/2017 07:31:11 0.04, -89.53 -0.04, -89.27 31.33 80
7 02/06/2017 07:19:00 0.05, -89.55 -0.65, -86.30 369.53 80
8 02/06/2017 19:40:24 -0.05, -89.57 -0.48, -91.49 218.68 80
9 02/08/2017 19:30:54 -0.06, -89.59 0.20, -88.54 120.21 80
10 02/09/2017 07:52:09 0.06, -89.59 0.94, -93.69 466.49 80




NCC Satellite Simultaneous Nadir Overpasses (SNOs) Prediction Service
